| time (UTC) | temp C | wind direction | speed KPH | gust KPH | rain 1hr cm | rain 24hr cm | rain mn cm | humidity % | barometer mb |
| 20260509000007 | 19 | 172 | 0.0 | 3.2 | 0.00 | 0.00 | 0.00 | 47 | 1013.3 |
| 20260508234504 | 20 | 224 | 0.0 | 8.0 | 0.00 | 0.00 | 0.00 | 46 | 1013.5 |
| 20260508233003 | 20 | 313 | 3.2 | 9.7 | 0.00 | 0.00 | 0.00 | 40 | 1013.5 |
| 20260508231502 | 20 | 292 | 1.6 | 9.7 | 0.00 | 0.00 | 0.00 | 41 | 1013.4 |
| 20260508230019 | 20 | 277 | 3.2 | 9.7 | 0.00 | 0.00 | 0.00 | 43 | 1013.3 |
| 20260508224521 | 20 | 315 | 3.2 | 9.7 | 0.00 | 0.00 | 0.00 | 42 | 1013.3 |
| 20260508223033 | 20 | 268 | 3.2 | 6.4 | 0.00 | 0.00 | 0.00 | 44 | 1013.4 |
| 20260508221510 | 20 | 280 | 3.2 | 9.7 | 0.00 | 0.00 | 0.00 | 40 | 1013.4 |
| 20260508220009 | 21 | 298 | 6.4 | 12.9 | 0.00 | 0.00 | 0.00 | 40 | 1013.4 |
| 20260508214507 | 21 | 248 | 3.2 | 9.7 | 0.00 | 0.00 | 0.00 | 37 | 1013.5 |
| 20260508213003 | 21 | 245 | 4.8 | 9.7 | 0.00 | 0.00 | 0.00 | 39 | 1013.6 |
| 20260508211518 | 21 | 244 | 4.8 | 9.7 | 0.00 | 0.00 | 0.00 | 35 | 1013.8 |
| 20260508210016 | 21 | 224 | 3.2 | 12.9 | 0.00 | 0.00 | 0.00 | 37 | 1013.5 |
| 20260508204516 | 21 | 217 | 1.6 | 11.3 | 0.00 | 0.00 | 0.00 | 40 | 1013.5 |
| 20260508203009 | 21 | 196 | 3.2 | 8.0 | 0.00 | 0.00 | 0.00 | 42 | 1013.8 |
| 20260508201510 | 20 | 327 | 4.8 | 12.9 | 0.00 | 0.00 | 0.00 | 37 | 1013.9 |
| 20260508200003 | 21 | 261 | 1.6 | 6.4 | 0.00 | 0.00 | 0.00 | 41 | 1014.1 |
| 20260508194504 | 21 | 336 | 3.2 | 8.0 | 0.00 | 0.00 | 0.00 | 39 | 1014.4 |
| 20260508193033 | 21 | 273 | 4.8 | 9.7 | 0.00 | 0.00 | 0.00 | 36 | 1014.7 |
| 20260508191533 | 20 | 320 | 4.8 | 11.3 | 0.00 | 0.00 | 0.00 | 39 | 1015.1 |
| 20260508190026 | 20 | 296 | 0.0 | 6.4 | 0.00 | 0.00 | 0.00 | 40 | 1015.5 |
| 20260508184510 | 20 | 252 | 6.4 | 14.5 | 0.00 | 0.00 | 0.00 | 41 | 1015.6 |
| 20260508183009 | 20 | 302 | 3.2 | 9.7 | 0.00 | 0.00 | 0.00 | 42 | 1015.7 |
| 20260508181506 | 20 | 212 | 1.6 | 6.4 | 0.00 | 0.00 | 0.00 | 41 | 1015.9 |
| 20260508180004 | 20 | 236 | 3.2 | 11.3 | 0.00 | 0.00 | 0.00 | 43 | 1016.0 |
| 20260508174521 | 20 | 334 | 1.6 | 8.0 | 0.00 | 0.00 | 0.00 | 37 | 1016.0 |
| 20260508173019 | 19 | 260 | 4.8 | 11.3 | 0.00 | 0.00 | 0.00 | 40 | 1016.2 |
| 20260508171514 | 18 | 279 | 6.4 | 11.3 | 0.00 | 0.00 | 0.00 | 40 | 1016.5 |
| 20260508170016 | 18 | 165 | 0.0 | 12.9 | 0.00 | 0.00 | 0.00 | 52 | 1016.8 |
| 20260508164516 | 18 | 265 | 3.2 | 9.7 | 0.00 | 0.00 | 0.00 | 48 | 1017.3 |
| 20260508163009 | 19 | 344 | 1.6 | 11.3 | 0.00 | 0.00 | 0.00 | 43 | 1017.4 |
| 20260508161525 | 18 | 205 | 4.8 | 11.3 | 0.00 | 0.00 | 0.00 | 50 | 1017.8 |
| 20260508160025 | 18 | 353 | 1.6 | 4.8 | 0.00 | 0.00 | 0.00 | 54 | 1017.9 |
| 20260508154522 | 17 | 356 | 1.6 | 8.0 | 0.00 | 0.00 | 0.00 | 54 | 1017.9 |
| 20260508153018 | 17 | 161 | 1.6 | 8.0 | 0.00 | 0.00 | 0.00 | 54 | 1018.1 |
| 20260508151515 | 16 | 242 | 3.2 | 4.8 | 0.00 | 0.00 | 0.00 | 52 | 1018.2 |
| 20260508150018 | 16 | 151 | 1.6 | 4.8 | 0.00 | 0.00 | 0.00 | 56 | 1018.4 |
| 20260508144509 | 15 | 279 | 0.0 | 6.4 | 0.00 | 0.00 | 0.00 | 58 | 1018.5 |
| 20260508143024 | 15 | 121 | 0.0 | 6.4 | 0.00 | 0.03 | 0.00 | 69 | 1018.4 |
| 20260508141522 | 14 | 220 | 0.0 | 3.2 | 0.00 | 0.03 | 0.00 | 71 | 1018.7 |
| 20260508140020 | 13 | 262 | 1.6 | 3.2 | 0.00 | 0.03 | 0.00 | 74 | 1018.9 |
| 20260508134518 | 12 | 315 | 0.0 | 4.8 | 0.00 | 0.03 | 0.00 | 79 | 1018.9 |
| 20260508133015 | 12 | 275 | 1.6 | 3.2 | 0.00 | 0.03 | 0.00 | 81 | 1018.8 |
| 20260508131515 | 11 | 298 | 0.0 | 3.2 | 0.00 | 0.03 | 0.00 | 85 | 1018.7 |
| 20260508130014 | 11 | 298 | 0.0 | 3.2 | 0.00 | 0.03 | 0.00 | 87 | 1018.6 |
| 20260508124525 | 10 | 294 | 1.6 | 1.6 | 0.00 | 0.03 | 0.00 | 88 | 1018.6 |
| 20260508123024 | 9 | 184 | 0.0 | 1.6 | 0.00 | 0.03 | 0.00 | 90 | 1018.6 |
| 20260508121523 | 8 | 180 | 0.0 | 0.0 | 0.00 | 0.05 | 0.00 | 90 | 1018.5 |
| 20260508120032 | 7 | 180 | 0.0 | 0.0 | 0.00 | 0.05 | 0.00 | 88 | 1018.4 |
| 20260508114517 | 7 | 180 | 0.0 | 0.0 | 0.00 | 0.05 | 0.00 | 87 | 1018.1 |
| 20260508113016 | 6 | 179 | 0.0 | 0.0 | 0.00 | 0.05 | 0.00 | 89 | 1017.9 |
| 20260508111511 | 8 | 179 | 0.0 | 0.0 | 0.00 | 0.05 | 0.00 | 91 | 1017.7 |
| 20260508110009 | 6 | 178 | 0.0 | 0.0 | 0.00 | 0.05 | 0.00 | 87 | 1017.5 |
| 20260508104508 | 7 | 178 | 0.0 | 0.0 | 0.00 | 0.08 | 0.00 | 86 | 1017.2 |
| 20260508103026 | 7 | 178 | 0.0 | 0.0 | 0.00 | 0.08 | 0.00 | 85 | 1017.0 |
| 20260508101522 | 6 | 179 | 0.0 | 0.0 | 0.00 | 0.08 | 0.00 | 89 | 1017.0 |
| 20260508100019 | 7 | 178 | 0.0 | 0.0 | 0.00 | 0.10 | 0.00 | 83 | 1016.7 |
| 20260508094517 | 7 | 178 | 0.0 | 0.0 | 0.00 | 0.10 | 0.00 | 86 | 1016.7 |
| 20260508093014 | 7 | 178 | 0.0 | 0.0 | 0.00 | 0.10 | 0.00 | 87 | 1016.5 |
| 20260508091508 | 6 | 178 | 0.0 | 0.0 | 0.00 | 0.13 | 0.00 | 88 | 1016.5 |
| 20260508090024 | 7 | 178 | 0.0 | 0.0 | 0.00 | 0.18 | 0.00 | 89 | 1016.5 |
| 20260508084525 | 7 | 178 | 0.0 | 0.0 | 0.00 | 0.20 | 0.00 | 86 | 1016.4 |
| 20260508083024 | 7 | 178 | 0.0 | 0.0 | 0.00 | 0.20 | 0.00 | 88 | 1016.4 |
| 20260508081522 | 8 | 178 | 0.0 | 0.0 | 0.00 | 0.20 | 0.00 | 86 | 1016.3 |
| 20260508080015 | 8 | 178 | 0.0 | 0.0 | 0.00 | 0.20 | 0.00 | 84 | 1016.5 |
| 20260508074512 | 8 | 178 | 0.0 | 0.0 | 0.00 | 0.23 | 0.00 | 86 | 1016.6 |
| 20260508073027 | 8 | 178 | 0.0 | 0.0 | 0.00 | 0.23 | 0.00 | 83 | 1016.5 |
| 20260508071525 | 8 | 178 | 0.0 | 3.2 | 0.00 | 0.23 | 0.00 | 87 | 1016.6 |
| 20260508070026 | 10 | 178 | 0.0 | 0.0 | 0.00 | 0.23 | 0.00 | 83 | 1016.6 |
| 20260508064527 | 9 | 178 | 0.0 | 0.0 | 0.00 | 0.23 | 0.00 | 90 | 1016.6 |
| 20260508063023 | 10 | 178 | 0.0 | 0.0 | 0.00 | 0.23 | 0.00 | 85 | 1016.6 |
| 20260508061516 | 9 | 178 | 0.0 | 0.0 | 0.00 | 0.23 | 0.00 | 86 | 1016.5 |
| 20260508060016 | 10 | 178 | 0.0 | 0.0 | 0.00 | 0.23 | 0.00 | 85 | 1016.6 |
| 20260508054512 | 11 | 178 | 0.0 | 0.0 | 0.00 | 0.23 | 0.00 | 80 | 1016.7 |
| 20260508053008 | 10 | 178 | 0.0 | 0.0 | 0.00 | 0.23 | 0.00 | 84 | 1016.7 |
| 20260508051530 | 10 | 178 | 0.0 | 0.0 | 0.00 | 0.23 | 0.00 | 84 | 1016.6 |
| 20260508050022 | 11 | 178 | 0.0 | 0.0 | 0.00 | 0.23 | 0.00 | 82 | 1016.7 |
| 20260508044521 | 11 | 178 | 0.0 | 0.0 | 0.00 | 0.23 | 0.00 | 83 | 1016.4 |
| 20260508043021 | 10 | 178 | 0.0 | 0.0 | 0.00 | 0.23 | 0.00 | 85 | 1016.4 |
| 20260508041516 | 12 | 178 | 0.0 | 0.0 | 0.00 | 0.23 | 0.00 | 79 | 1016.2 |
| 20260508040013 | 11 | 178 | 0.0 | 0.0 | 0.00 | 0.23 | 0.00 | 87 | 1016.1 |
| 20260508034510 | 11 | 178 | 0.0 | 0.0 | 0.00 | 0.23 | 0.23 | 85 | 1016.2 |
| 20260508033027 | 14 | 178 | 0.0 | 0.0 | 0.00 | 0.23 | 0.23 | 80 | 1016.0 |
| 20260508031526 | 13 | 178 | 0.0 | 3.2 | 0.00 | 0.23 | 0.23 | 84 | 1016.1 |
| 20260508030022 | 11 | 57 | 0.0 | 1.6 | 0.00 | 0.23 | 0.23 | 87 | 1016.1 |
| 20260508024516 | 13 | 57 | 0.0 | 0.0 | 0.00 | 0.25 | 0.23 | 83 | 1015.8 |
| 20260508023015 | 13 | 57 | 0.0 | 0.0 | 0.00 | 0.25 | 0.23 | 85 | 1015.8 |
| 20260508021511 | 15 | 56 | 0.0 | 3.2 | 0.00 | 0.30 | 0.23 | 82 | 1015.8 |
| 20260508020036 | 14 | 165 | 0.0 | 3.2 | 0.00 | 0.30 | 0.23 | 83 | 1015.7 |
| 20260508014525 | 13 | 157 | 0.0 | 3.2 | 0.00 | 0.30 | 0.23 | 87 | 1015.1 |
| 20260508013024 | 13 | 178 | 1.6 | 3.2 | 0.00 | 0.30 | 0.23 | 88 | 1015.0 |
| 20260508011521 | 13 | 134 | 0.0 | 3.2 | 0.00 | 0.30 | 0.23 | 87 | 1014.9 |
| 20260508010018 | 13 | 207 | 1.6 | 3.2 | 0.00 | 0.30 | 0.23 | 84 | 1014.6 |
| 20260508004517 | 15 | 134 | 0.0 | 4.8 | 0.00 | 0.33 | 0.23 | 83 | 1014.4 |
| 20260508003009 | 15 | 181 | 0.0 | 3.2 | 0.00 | 0.41 | 0.23 | 82 | 1014.1 |
| 20260508001524 | 16 | 180 | 1.6 | 3.2 | 0.00 | 0.58 | 0.23 | 72 | 1013.8 |